Zurück zum Katalog

STARLINK-5885

AktivKommunikationSSO
NORAD 56352·PAYLOAD·🇺🇸 United States

Gestartet Apr 27, 2023 von Vandenberg Space Force Base

Loading…

Nächste Überflüge (nächste 24 Stunden)

TLE

AktuellSource: CelesTrak SupGP

Epoche: Sep 15, 2026, 03:11 UTC

1 56352C 23058AM  26258.13312500  .00640500  00000+0  35861-1 0  2583
2 56352  97.2852 252.2341 0001528  85.6763 155.8513 15.13196608    15

Verfolge STARLINK-5885 in Echtzeit mit AllMySat

Download on the App Store